GFSCGP_850_spd_000.txt.gz
Wind_Speed
24 15 22 25 26 26 24 23 24 22 16 9 15 21 18 15 19 23 23 16 14 16 18 21 20 16 14 10 8 6 5 5 7 7 10 10 10 6 9 11 10 7 9 12
21 24 26 26 23 27 27 25 23 20 18 14 14 15 13 15 19 26 24 20 15 18 21 21 20 19 16 12 8 8 4 5 5 3 8 13 11 8 8 9 10 7 4 9
26 25 26 27 24 26 25 24 20 22 17 16 15 14 14 21 22 18 17 9 8 20 22 23 21 20 16 12 11 7 6 5 3 2 6 9 12 11 6 6 9 8 1 7
30 26 28 28 26 25 24 25 24 17 14 12 14 13 13 15 16 11 6 12 15 22 23 24 23 21 17 13 10 9 6 3 4 2 3 11 13 13 6 4 9 7 3 6
32 28 30 27 28 27 23 23 18 13 15 14 15 12 14 14 17 7 1 8 20 24 26 26 24 21 17 13 12 9 6 4 3 5 8 7 11 13 10 3 7 5 5 4
29 30 29 30 25 25 24 20 11 12 12 12 15 15 14 15 4 4 1 6 19 21 23 24 22 20 17 14 12 9 7 5 3 1 6 9 13 14 9 4 4 9 6 3
26 33 30 29 29 22 23 12 11 10 11 11 17 15 15 9 10 1 2 5 18 20 22 24 23 21 18 14 13 9 7 5 3 2 3 6 10 9 12 9 7 8 11 7
23 22 33 27 29 24 21 17 11 11 11 16 20 16 3 5 6 2 1 4 15 18 22 23 23 21 18 14 13 10 8 6 3 1 1 5 5 9 12 12 9 8 9 8
22 29 23 32 23 22 19 21 18 17 15 12 8 10 13 12 7 9 11 11 17 16 21 22 22 20 17 15 13 10 7 6 4 2 1 3 5 6 9 10 12 13 10 13
25 17 28 30 25 22 22 19 16 12 15 13 11 14 4 11 6 10 8 8 17 17 20 22 22 20 16 15 13 11 9 7 5 2 1 3 2 8 9 9 9 11 12 16
26 17 21 24 26 22 19 18 16 14 14 11 9 9 3 11 9 9 8 14 17 20 22 22 21 19 16 15 14 13 10 7 7 4 3 5 3 6 4 8 9 10 13 12
32 11 16 27 27 26 23 23 17 10 15 10 10 3 11 8 8 7 14 16 19 24 23 21 21 19 17 16 15 13 11 9 8 6 5 6 6 6 4 10 13 14 11 12
27 21 13 19 22 23 23 24 19 13 9 14 11 10 10 11 9 7 17 21 21 23 22 21 21 20 19 17 17 14 13 11 9 8 7 8 7 7 7 7 12 16 15 14
22 19 22 16 20 22 26 24 23 19 13 14 14 14 13 12 9 10 18 27 24 25 23 22 22 21 20 19 18 15 13 13 10 10 8 10 8 8 11 12 9 14 15 20
21 26 21 23 23 27 25 25 26 24 19 18 16 16 11 14 12 12 19 24 25 24 26 23 23 23 22 21 20 17 14 15 13 12 11 11 10 11 11 11 12 12 14 19
20 20 21 24 27 26 28 27 26 25 23 22 20 17 13 10 25 16 22 20 20 25 26 24 23 23 24 24 22 20 16 17 15 14 12 12 13 12 13 12 13 13 14 13
17 17 22 19 23 23 24 26 26 21 21 22 20 15 13 11 11 8 23 18 20 24 27 27 26 25 26 26 24 23 19 18 17 15 14 14 15 14 13 12 14 14 14 14
13 22 17 15 17 26 13 21 22 21 18 19 17 16 16 13 11 15 18 25 23 23 25 29 28 27 27 26 25 23 21 20 18 17 16 17 16 16 15 14 14 16 16 13
18 16 11 15 15 13 23 20 22 21 18 18 18 15 14 22 18 12 14 14 23 20 25 30 31 28 28 27 27 26 23 22 20 19 18 18 18 18 18 16 16 12 17 16
15 15 12 13 16 21 15 22 15 14 15 15 16 13 14 17 11 9 20 16 24 21 22 27 31 31 29 30 29 29 26 25 23 20 19 18 19 20 20 19 18 14 15 16
14 15 17 13 8 13 20 14 22 17 8 13 18 19 16 12 11 18 17 17 25 26 22 25 33 35 33 33 32 32 30 28 25 21 20 19 19 22 20 20 20 18 17 14
14 15 12 15 13 11 13 18 20 6 9 8 21 22 20 15 14 16 12 7 19 25 21 25 32 35 34 35 35 33 31 28 25 23 22 21 21 21 22 22 21 19 19 16
6 3 9 8 11 3 8 10 13 13 10 9 21 21 20 20 19 19 13 14 14 18 20 22 28 33 35 35 37 36 32 29 26 24 24 24 23 20 22 23 22 20 21 17
6 13 6 8 17 14 14 11 13 14 11 11 15 14 22 23 21 19 20 20 16 12 19 23 27 33 35 35 35 36 32 31 28 26 26 27 25 21 22 22 24 22 22 23
10 10 13 12 10 11 3 10 10 15 13 15 12 9 13 16 20 19 16 16 13 16 18 24 23 28 32 33 34 34 34 33 31 29 28 29 28 24 24 21 22 22 21 23
10 4 4 4 22 16 15 21 34 21 7 10 14 12 18 13 16 20 20 17 17 17 20 22 19 19 28 30 31 33 36 34 33 33 31 32 29 26 26 25 22 17 20 15

GFSCGP_850_spd_006.txt.gz
Wind_Speed
25 11 16 26 22 13 8 7 9 20 24 5 12 15 23 20 18 21 28 32 34 22 24 32 37 33 28 21 15 12 8 5 5 4 7 10 15 16 15 10 11 11 9 9
7 25 24 17 16 13 12 14 17 20 23 6 17 19 22 12 7 21 29 34 32 19 21 29 36 33 28 20 14 12 8 5 3 3 7 11 14 14 15 9 8 10 12 7
22 8 19 17 15 13 16 18 17 18 21 16 11 16 9 6 6 13 23 26 20 22 31 36 36 31 25 18 14 12 8 5 2 5 6 9 9 12 13 8 6 10 8 4
18 21 16 21 18 17 19 17 19 16 12 8 6 7 6 6 5 5 13 15 17 28 34 37 37 31 25 17 14 11 9 5 6 3 4 8 11 14 13 5 6 4 2 6
17 21 24 21 26 21 18 18 18 20 14 9 22 4 8 6 6 9 10 10 20 31 36 41 37 31 21 17 15 12 9 5 5 5 4 9 11 11 7 3 3 2 2 6
26 9 21 24 18 22 23 11 12 12 9 11 16 7 14 5 8 5 2 18 31 33 35 36 32 25 20 16 15 13 10 5 3 4 2 9 8 8 7 4 3 4 5 8
14 24 16 15 21 20 15 10 4 3 4 11 10 7 11 6 8 8 8 20 25 30 33 33 32 27 21 20 17 13 8 6 5 6 5 7 6 7 7 6 6 4 5 9
16 12 27 21 20 17 20 14 8 7 5 4 6 6 9 9 5 13 18 24 28 30 30 31 31 26 21 20 17 12 8 6 10 9 4 3 6 4 6 8 10 2 5 10
16 16 8 21 19 19 13 15 21 5 4 2 4 6 9 5 6 6 16 26 30 31 32 33 29 25 21 20 16 11 9 9 11 9 4 2 6 5 6 8 9 5 9 11
4 5 16 16 15 24 26 5 7 2 10 6 4 4 5 1 7 6 8 16 28 30 32 31 29 26 20 17 14 12 10 11 9 4 5 3 3 6 6 6 6 8 8 8
9 3 5 16 21 27 11 10 6 5 6 8 3 7 8 13 10 15 13 26 33 34 35 33 30 25 19 17 16 15 12 13 10 6 7 3 1 5 5 6 6 6 8 9
25 4 11 22 5 16 14 14 10 9 5 2 6 10 3 12 13 15 16 28 33 35 36 32 29 26 23 21 17 16 15 12 10 8 8 6 2 2 3 7 5 5 8 11
6 16 9 8 2 8 16 14 8 5 5 8 7 7 3 5 12 19 21 25 33 35 35 33 31 28 25 23 17 14 17 14 11 9 11 8 4 3 5 7 6 8 10 12
11 7 28 15 11 5 6 18 14 8 5 6 9 5 3 2 13 9 19 31 36 38 38 37 33 29 26 23 18 15 18 16 12 11 12 9 4 8 8 8 10 11 14 14
8 13 21 31 18 5 8 18 19 17 13 11 8 11 9 10 16 19 30 30 32 36 39 39 36 31 26 25 20 17 18 18 15 14 11 10 11 14 9 13 13 15 17 14
9 6 16 23 30 27 18 15 22 16 8 8 12 9 8 19 18 15 25 29 31 37 41 40 36 33 29 28 23 20 18 19 18 16 11 15 15 11 11 13 12 14 15 13
4 5 3 21 19 20 20 21 19 19 15 13 11 7 8 8 14 20 25 33 36 39 41 41 39 36 30 29 25 24 20 21 20 16 13 19 15 14 13 12 10 11 11 10
9 5 4 9 11 9 9 14 15 22 19 12 5 10 12 13 28 35 45 43 39 41 43 42 40 37 31 28 26 23 23 24 23 18 15 20 19 18 14 14 12 11 8 6
18 8 5 5 15 4 4 5 11 9 7 9 17 11 12 17 17 14 42 46 41 40 42 42 39 37 33 30 28 27 27 26 25 22 18 18 23 22 18 14 14 12 11 4
16 17 4 3 8 7 3 5 11 9 12 10 12 12 11 13 6 5 38 46 43 40 39 42 41 40 35 33 32 31 31 30 29 23 19 17 25 23 20 19 15 15 12 7
4 4 12 6 4 2 13 19 6 12 5 11 21 19 17 9 14 25 46 47 45 43 40 41 42 41 38 36 36 34 33 33 27 21 20 21 19 23 22 20 18 16 15 11
4 4 2 4 1 4 27 8 8 7 25 24 22 33 31 36 28 34 47 49 46 46 44 42 42 42 40 38 38 36 36 30 27 22 23 25 21 23 21 21 18 15 17 18
2 4 4 5 1 7 11 11 13 18 19 30 32 16 33 28 30 31 36 46 48 46 47 43 43 42 42 41 39 37 33 31 29 26 25 26 25 25 25 22 21 18 13 23
3 7 3 7 2 16 14 20 27 31 32 33 40 19 30 34 30 26 24 33 47 46 47 45 43 43 43 44 40 33 32 31 31 29 27 26 30 28 26 24 22 21 19 19
2 5 7 6 8 24 1 28 34 41 40 48 47 35 8 26 29 28 27 36 43 49 48 45 42 42 43 42 41 37 33 34 35 31 30 29 32 30 29 26 24 22 19 18
6 4 3 3 16 10 21 29 35 40 44 43 41 42 22 11 28 30 32 37 48 48 46 44 42 43 41 40 39 37 35 37 35 36 34 32 37 33 31 28 26 23 16 14

GFSCGP_850_spd_009.txt.gz
Wind_Speed
18 8 19 21 20 12 13 12 18 18 5 7 9 10 17 24 18 22 28 34 37 39 36 24 36 36 37 33 27 20 14 12 10 8 7 6 10 13 14 14 10 10 12 11
7 27 17 12 14 16 11 9 18 15 12 5 12 15 16 17 15 25 34 31 34 28 24 19 25 34 39 34 24 17 14 11 9 7 6 7 11 12 15 13 9 10 11 12
25 18 15 19 14 17 17 19 18 20 6 7 11 12 16 17 13 25 23 24 20 22 23 24 29 38 37 30 22 16 14 11 8 5 4 7 10 13 15 11 7 9 10 7
17 23 17 20 20 19 19 19 19 17 8 9 4 5 5 8 10 7 13 12 18 21 23 24 35 39 35 25 18 16 13 9 6 4 4 6 10 14 10 7 5 6 4 3
16 19 25 17 29 20 18 12 12 8 7 5 16 4 5 4 10 10 11 15 15 14 20 28 36 38 29 21 18 16 12 7 5 6 4 6 10 11 8 6 4 3 1 5
20 14 18 27 10 18 8 3 3 6 2 8 21 5 8 6 8 6 6 12 7 16 22 29 34 31 24 19 17 16 12 6 5 6 3 7 10 9 7 6 5 5 4 7
8 21 4 10 20 10 10 6 2 3 4 6 8 6 14 10 10 12 11 5 12 18 23 29 34 31 25 21 19 16 12 7 5 7 4 6 9 7 7 8 7 3 4 9
12 10 27 11 19 12 22 15 6 6 4 4 6 7 10 9 13 23 21 11 18 20 22 28 33 30 24 21 19 15 10 8 7 5 3 4 8 5 7 9 7 1 5 10
13 14 2 22 8 18 11 15 12 3 1 1 4 7 8 3 1 2 7 18 22 23 27 30 31 28 24 21 20 15 11 9 10 6 3 1 3 6 7 9 6 3 6 10
2 2 9 14 19 17 9 9 9 4 4 3 5 4 6 3 2 3 6 10 19 23 27 30 31 28 22 19 17 14 10 9 10 6 4 1 1 6 8 7 5 6 7 10
3 2 4 10 14 23 6 15 3 8 5 6 1 6 8 9 9 11 9 20 26 28 30 32 31 26 20 19 17 14 12 12 9 6 4 3 1 5 5 4 3 5 6 8
6 5 9 11 4 17 23 19 20 8 8 2 5 12 5 8 10 9 12 23 25 29 30 31 31 27 24 22 18 15 14 14 10 7 7 4 2 4 3 4 3 4 9 9
8 5 1 5 5 4 14 22 16 7 3 6 6 6 3 5 8 17 16 23 27 29 30 31 31 29 26 24 19 18 16 13 11 9 8 6 1 2 3 4 6 6 9 10
6 5 12 17 4 4 5 17 17 14 10 10 10 5 3 3 7 7 14 27 30 31 33 33 32 30 28 25 21 18 18 15 13 10 10 7 1 4 4 5 9 9 11 13
3 4 7 17 21 11 4 11 20 20 20 15 16 10 7 8 10 15 24 25 27 29 33 34 34 32 30 27 22 18 19 17 15 12 10 7 8 8 8 8 13 12 12 13
6 5 10 9 15 23 22 8 16 20 14 11 8 9 8 8 12 11 23 27 29 34 37 36 34 33 32 29 25 21 21 19 17 13 10 10 13 10 10 10 14 13 11 11
3 4 10 7 13 9 16 28 15 9 13 15 9 9 7 4 11 15 23 30 33 36 39 39 37 35 32 31 27 25 22 20 19 15 12 15 14 9 11 11 12 12 10 8
6 4 3 5 2 9 13 9 18 14 8 12 4 9 14 11 29 34 41 43 35 37 39 39 37 36 32 29 28 25 22 22 22 19 14 17 14 14 14 10 10 10 10 8
12 6 3 3 5 4 6 5 4 9 9 8 11 8 10 16 15 9 38 42 43 39 37 37 35 33 31 30 29 28 26 23 24 23 18 18 18 17 13 11 10 8 7 9
11 15 6 2 3 7 4 17 19 11 9 12 14 8 8 14 8 7 38 40 39 38 35 36 35 34 33 32 31 31 30 27 27 24 21 17 21 19 15 12 11 10 6 8
6 3 8 3 4 3 17 20 26 9 5 20 23 21 15 10 17 37 38 43 42 40 35 34 36 36 34 34 34 34 33 30 25 24 22 19 24 23 18 14 13 11 9 6
3 5 2 3 4 3 25 8 8 7 19 23 28 25 18 32 35 31 34 35 41 44 36 34 36 37 37 36 37 36 35 27 26 27 24 22 22 25 22 18 16 13 12 9
3 3 4 3 2 1 12 6 10 14 16 23 29 33 25 23 26 32 34 37 42 47 41 36 37 38 37 39 38 38 34 30 28 29 26 25 23 24 21 23 20 19 15 14
3 4 2 7 4 11 16 9 20 24 24 30 30 27 20 9 22 33 34 41 44 48 45 40 38 38 39 41 40 35 35 32 31 31 27 27 28 26 26 24 23 21 19 17
3 2 4 5 9 16 4 32 32 34 34 32 35 27 24 11 5 25 37 43 45 48 46 42 41 39 39 39 41 40 37 35 34 32 29 28 30 30 28 28 25 22 20 17
2 1 1 1 18 11 14 28 36 27 33 35 37 35 32 23 5 11 32 42 45 47 47 45 43 38 37 38 41 40 39 37 37 36 34 30 29 33 31 30 30 27 21 19

GFSCGP_850_spd_015.txt.gz
Wind_Speed
25 13 27 31 26 18 18 20 26 19 14 14 19 18 12 21 23 26 28 31 33 35 32 29 23 16 15 17 21 27 32 30 28 24 21 17 14 11 12 14 16 16 13 12
11 29 30 21 22 23 24 23 21 16 12 12 15 21 15 16 24 29 26 29 30 27 27 19 15 13 12 15 21 26 30 29 25 20 15 13 11 11 11 13 14 11 9 10
26 38 18 20 23 25 27 28 23 19 12 13 13 23 18 22 16 22 26 28 30 26 20 11 12 12 14 17 21 27 29 24 20 16 13 10 9 8 9 9 9 7 8 9
22 25 24 22 30 23 26 24 22 20 13 16 3 16 15 21 22 21 26 22 24 17 17 12 11 9 12 16 22 28 25 21 17 14 10 9 7 6 6 7 6 7 6 5
18 18 23 26 26 26 18 14 17 19 18 18 17 11 13 10 20 23 21 23 15 9 10 10 9 8 12 21 29 25 22 18 14 12 10 7 3 4 5 6 6 7 5 3
18 14 26 29 20 22 11 13 14 8 10 13 15 11 12 16 19 14 13 11 5 8 6 8 10 13 21 28 28 24 20 16 13 11 9 5 2 3 5 6 7 6 5 4
16 17 6 15 19 20 20 14 7 7 7 10 15 13 19 17 18 19 18 8 5 4 8 15 20 25 31 32 27 22 19 16 12 10 9 3 1 3 5 6 7 4 3 6
14 11 21 18 21 17 27 21 9 9 6 7 6 10 8 18 20 29 21 14 7 9 13 16 21 28 32 30 25 22 19 14 11 11 8 4 1 3 5 7 4 2 6 8
12 17 14 20 19 22 25 20 14 2 2 4 5 7 10 16 12 8 11 6 10 13 15 20 25 30 31 27 24 20 18 13 12 11 7 4 1 3 5 5 4 5 8 11
7 10 12 23 23 24 17 20 10 9 10 8 5 5 8 3 15 10 9 10 13 15 17 20 27 30 28 24 22 20 14 12 13 10 7 5 1 3 4 4 5 6 8 11
6 6 13 23 21 23 11 21 7 9 5 6 3 5 8 11 5 4 3 12 18 19 19 22 25 28 26 23 22 20 15 13 13 9 9 4 2 2 2 2 4 5 8 9
4 5 6 24 10 19 20 22 20 10 9 8 2 4 2 8 5 6 2 12 14 17 20 22 24 29 27 24 23 19 16 14 12 10 8 5 2 1 1 1 3 6 8 9
8 4 7 10 6 16 26 21 17 6 5 15 9 3 4 3 3 1 7 15 16 19 22 23 25 29 26 25 23 19 16 14 12 10 7 5 2 1 1 4 5 8 9 9
8 3 7 8 7 1 24 23 21 14 9 10 17 12 17 8 1 5 6 10 17 20 24 25 26 27 25 25 23 19 17 15 12 9 8 5 2 2 3 7 8 8 10 11
4 2 5 13 11 9 5 23 23 21 16 12 9 23 20 16 5 2 7 15 17 21 25 26 29 28 27 26 23 19 18 16 13 10 9 6 5 4 8 10 11 12 13 12
2 2 9 9 10 8 8 7 11 26 23 18 13 14 12 14 9 4 9 19 21 23 23 25 29 29 29 27 25 21 20 18 15 12 10 8 7 9 12 12 11 12 12 13
1 4 3 7 3 5 11 14 9 9 21 20 21 27 11 14 13 9 11 22 26 25 27 31 33 33 30 29 26 23 22 19 16 14 12 11 9 11 14 13 11 11 11 11
3 1 2 2 0 10 2 11 11 15 3 7 17 10 7 14 25 25 16 23 27 25 26 29 33 34 31 28 26 23 22 21 18 16 14 15 12 12 14 12 10 9 10 10
9 2 2 3 5 3 5 9 5 2 4 10 8 10 12 15 18 22 15 23 32 35 31 32 33 33 31 30 28 26 24 23 20 18 17 19 16 14 15 13 11 9 10 9
7 9 5 3 5 7 5 12 4 1 6 11 11 10 12 15 9 11 13 6 17 23 29 31 32 33 31 30 30 28 26 26 24 21 19 21 18 17 15 12 10 9 10 11
1 3 7 6 2 3 12 12 6 9 3 15 14 14 13 8 12 26 25 17 9 18 24 30 33 36 34 33 32 31 28 28 26 22 20 20 19 17 15 14 11 9 12 12
1 2 3 3 4 4 18 4 3 6 10 13 15 15 18 20 25 26 23 21 12 18 27 32 34 37 36 34 33 33 32 27 26 24 22 20 21 20 18 15 14 11 11 13
1 2 1 2 3 8 11 3 8 8 12 15 17 19 18 21 22 22 21 19 13 18 26 32 36 38 38 36 34 34 31 29 28 27 24 22 21 21 19 18 16 15 12 13
1 1 1 3 3 11 8 8 13 15 16 18 19 19 18 21 22 22 20 16 16 18 27 33 33 40 42 39 33 30 31 31 30 29 26 25 22 23 22 19 16 16 15 14
2 2 4 3 6 9 4 15 20 22 21 23 23 21 19 21 22 20 20 16 14 19 25 34 40 44 44 42 36 34 31 33 33 31 28 27 26 23 23 22 20 18 17 14
5 4 3 2 7 8 16 19 24 22 25 26 27 28 25 23 25 22 20 16 15 21 25 34 40 39 44 43 40 36 34 34 35 34 31 30 29 26 24 24 22 21 19 15

GFSCGP_850_spd_021.txt.gz
Wind_Speed
30 19 27 44 37 33 29 27 31 32 27 29 31 32 25 24 32 32 36 36 29 36 36 32 27 17 20 16 17 19 23 25 28 24 24 22 19 15 13 12 13 14 13 16
24 31 46 26 32 31 33 32 33 29 25 23 27 28 27 25 26 32 38 40 34 33 38 31 20 12 11 12 15 17 19 24 25 24 22 19 16 12 11 10 11 11 13 15
31 44 25 33 31 32 33 33 29 30 24 22 23 27 30 27 29 34 39 41 39 38 36 28 22 10 8 11 14 17 20 24 24 20 19 16 13 11 10 11 10 11 11 14
28 34 32 32 34 34 32 30 27 25 21 20 21 23 26 20 24 24 31 31 30 29 28 27 16 10 11 12 14 17 21 23 22 23 18 16 12 9 9 8 8 9 11 11
33 28 33 36 42 32 37 25 26 26 21 23 26 18 18 20 22 22 21 28 32 31 29 26 16 13 13 15 17 20 22 23 21 20 15 13 10 8 6 7 8 11 11 12
31 34 27 39 33 28 30 27 25 20 19 20 24 21 22 22 20 22 21 25 24 25 23 10 14 16 17 17 20 22 23 21 19 16 14 11 9 6 5 5 7 11 12 10
29 30 28 29 31 35 28 25 16 17 17 22 16 19 23 19 20 19 15 20 15 6 11 16 19 19 21 23 23 23 22 20 17 15 12 9 6 5 5 5 7 7 8 6
22 26 34 28 28 36 32 28 17 29 13 18 23 18 13 16 5 8 19 12 9 11 14 18 20 22 24 24 24 22 20 19 16 14 11 8 6 3 2 4 4 6 3 4
15 28 29 34 24 26 39 28 35 24 20 14 15 16 19 18 16 8 10 19 14 13 17 21 23 24 24 24 23 22 20 17 15 13 11 9 6 5 5 5 3 3 5 3
14 21 29 27 29 33 32 29 22 20 25 19 13 12 8 5 10 12 12 17 17 18 21 23 24 24 24 23 21 20 18 16 14 12 10 8 7 6 3 3 3 5 7 6
19 5 20 33 31 31 25 25 29 22 19 14 12 12 7 4 4 14 14 19 20 22 24 25 25 24 23 22 20 19 17 15 14 12 10 9 7 6 4 4 5 4 6 6
12 7 15 23 29 31 32 29 31 17 25 18 11 3 4 9 10 13 9 13 21 23 25 25 26 25 24 22 20 18 16 14 13 12 9 8 6 6 5 5 7 5 6 6
7 11 13 6 16 30 30 32 27 28 18 19 10 5 7 7 4 5 10 17 22 24 25 25 25 25 23 21 20 18 15 15 13 12 9 7 7 5 5 7 7 8 7 6
8 12 18 6 10 22 30 34 30 28 17 18 18 14 13 13 10 7 13 18 22 23 25 25 24 24 22 21 20 17 16 15 14 12 9 8 5 5 7 7 9 10 7 7
4 17 23 5 21 27 27 30 27 31 22 17 20 12 12 16 14 11 14 17 19 22 23 24 24 23 22 21 19 17 16 15 14 12 10 6 6 7 8 7 8 10 10 9
5 12 19 9 19 27 19 29 25 27 20 19 14 17 10 15 14 11 12 16 18 20 22 23 23 23 23 22 20 18 17 16 14 13 11 10 9 9 8 8 8 11 10 11
9 10 3 6 18 24 16 23 28 22 25 17 11 9 11 5 6 4 12 3 17 19 20 22 24 24 23 22 21 20 18 17 15 14 11 12 11 11 10 9 9 8 9 10
10 13 3 4 14 10 12 12 19 21 21 18 12 13 7 9 10 10 8 12 5 16 18 20 21 22 22 22 21 19 19 18 16 15 13 13 12 11 12 10 10 9 11 11
13 5 4 3 9 15 3 5 4 19 11 12 7 6 10 10 6 1 8 9 9 8 18 19 21 22 21 22 23 21 20 19 17 16 15 14 14 12 11 10 10 9 6 7
6 4 2 6 7 5 7 8 7 2 11 9 6 6 8 8 7 9 9 10 10 9 19 20 22 23 23 23 23 23 22 20 19 18 16 15 14 12 11 9 9 8 6 6
4 2 9 9 9 7 12 12 2 11 6 5 7 7 6 6 10 14 11 8 7 7 12 19 22 24 24 24 24 23 22 22 20 18 18 16 15 13 12 9 7 9 9 5
2 2 5 5 4 4 20 5 3 6 7 8 8 9 6 8 10 11 9 8 6 5 11 19 23 24 25 25 25 23 23 22 21 20 19 18 16 14 11 10 10 8 9 10
1 4 3 5 2 13 10 16 16 15 10 10 9 9 9 9 10 10 9 7 6 6 11 20 23 25 26 26 26 25 23 23 23 22 21 20 17 15 13 11 11 11 10 10
5 8 3 2 6 9 14 16 16 12 13 11 11 10 10 11 11 11 9 6 5 6 10 19 24 27 27 27 26 25 24 24 24 23 22 21 19 17 15 13 12 11 11 10
5 6 7 2 8 9 1 13 13 11 12 14 12 12 11 11 12 12 10 7 5 6 9 18 24 26 27 28 27 26 26 26 26 24 23 22 21 20 17 15 13 11 11 11
4 3 3 2 4 6 12 17 10 11 14 13 14 14 12 12 13 14 13 11 7 6 9 15 22 26 28 29 29 28 28 28 28 27 25 24 22 22 19 18 17 17 14 17

GFSCGP_850_spd_024.txt.gz
Wind_Speed
28 17 25 43 30 30 28 32 32 29 28 28 25 27 30 23 27 25 26 24 30 32 28 25 24 26 35 22 23 22 22 25 29 29 22 25 25 24 22 18 17 17 16 15
20 29 39 22 31 33 33 31 31 28 26 24 23 26 26 22 22 25 26 26 28 30 31 29 24 23 24 21 21 24 24 28 30 27 20 23 22 18 17 17 16 17 18 14
24 37 23 29 31 29 32 32 27 30 25 26 23 26 25 24 27 30 27 28 29 31 32 36 31 25 21 18 17 20 24 26 27 24 23 20 19 16 15 15 14 17 16 15
24 26 32 31 33 31 28 28 28 27 23 18 21 20 24 18 21 19 22 29 28 30 35 37 32 22 18 13 12 14 20 24 27 23 24 21 20 16 14 12 13 9 9 8
34 24 27 32 36 29 34 24 26 27 24 21 25 15 23 16 17 16 15 22 24 25 24 24 19 20 16 15 14 18 23 22 25 23 21 22 17 13 8 9 11 12 15 17
29 33 28 29 28 31 26 27 27 25 18 17 26 20 25 18 17 18 19 23 21 25 25 20 19 23 20 16 18 21 21 25 25 23 18 17 14 9 9 10 9 10 13 12
24 26 29 30 28 29 31 21 16 17 16 22 18 20 22 19 19 21 17 18 15 13 19 28 27 24 21 21 22 22 26 24 25 20 19 13 15 13 9 6 6 8 7 6
12 14 27 29 32 26 30 25 15 25 15 20 23 22 19 19 22 20 10 11 8 12 21 24 22 23 24 23 23 23 24 22 22 18 15 12 9 6 6 4 5 4 1 3
9 15 24 29 28 28 26 27 28 22 21 16 16 20 29 23 18 13 7 13 11 15 20 20 22 24 25 25 25 25 22 21 19 16 15 12 9 8 7 7 4 1 4 4
7 17 21 25 27 33 28 22 25 17 23 21 20 19 9 14 18 12 9 12 20 21 21 22 24 26 26 25 25 22 21 20 18 15 14 11 8 7 3 2 2 5 9 8
13 12 24 21 24 28 24 23 26 18 19 16 14 13 7 9 7 11 12 18 25 23 24 26 26 27 26 25 23 23 20 18 17 15 12 13 7 5 6 4 4 5 13 6
16 7 17 23 27 26 29 25 23 15 24 17 14 15 7 8 8 12 15 25 26 26 27 27 27 27 26 24 23 21 19 17 17 13 11 8 9 7 6 7 7 2 10 8
6 7 9 21 18 21 26 28 25 21 13 19 17 14 6 8 13 13 17 25 26 27 28 28 28 27 25 24 22 21 18 17 15 14 11 10 8 6 7 8 10 6 7 7
3 7 16 11 9 16 13 29 31 24 19 18 19 3 11 13 11 12 20 25 26 27 28 28 27 25 23 22 21 19 17 16 14 14 12 10 7 4 9 7 13 10 7 6
3 7 17 19 10 14 22 27 31 28 24 21 21 10 17 14 12 15 22 24 26 27 26 26 25 24 23 22 21 18 17 16 14 14 13 6 5 7 9 8 12 12 10 8
7 4 18 17 12 15 24 27 23 30 27 27 26 14 12 16 18 16 18 24 23 25 25 24 24 24 24 22 20 19 18 17 15 14 11 3 8 11 7 8 11 12 12 8
12 7 7 12 7 9 17 23 22 26 24 27 18 10 22 14 11 16 19 23 21 23 24 23 23 23 23 22 21 20 19 17 16 15 7 12 13 9 10 10 11 10 11 10
14 11 3 4 10 5 10 14 22 24 23 22 8 13 17 17 20 22 21 17 10 23 22 23 23 23 23 21 21 20 19 18 16 16 12 14 13 12 11 9 8 9 11 12
11 8 4 2 4 15 11 12 12 11 7 19 18 19 17 18 28 20 17 15 13 7 24 23 23 25 23 22 22 21 19 18 17 16 17 14 15 12 12 10 11 8 11 11
10 6 4 1 3 5 8 20 33 16 10 16 15 16 12 7 10 7 14 13 13 11 13 24 24 25 24 24 24 22 20 19 18 16 17 16 13 10 10 10 10 6 8 8
2 2 4 3 1 7 18 29 30 3 3 10 18 16 15 11 9 7 9 9 10 10 2 23 25 25 26 26 25 23 21 20 19 17 17 18 13 11 8 6 9 9 8 6
3 4 1 3 4 5 22 16 9 8 5 13 15 14 13 10 10 9 8 8 8 7 2 23 26 27 27 27 27 24 23 21 19 18 18 19 17 14 10 7 10 10 9 10
4 4 3 5 2 7 19 11 20 19 18 17 16 14 13 12 12 9 7 5 5 5 6 17 25 27 27 28 28 25 24 22 21 20 20 22 16 17 11 12 10 10 11 11
6 14 3 1 5 10 16 19 18 21 22 21 13 14 14 11 10 9 7 4 4 5 9 10 26 27 29 29 27 25 25 23 23 23 22 20 20 19 11 12 16 9 9 10
3 5 8 3 8 10 13 22 20 12 15 15 13 11 9 9 9 10 9 9 5 4 7 12 22 28 29 29 28 27 26 25 25 25 25 23 22 20 17 14 13 11 11 14
5 5 2 1 8 7 10 15 13 11 9 8 8 10 9 9 9 11 11 12 9 8 6 10 14 27 28 28 28 28 27 28 27 28 26 25 23 22 18 20 17 14 14 10

GFSCGP_850_spd_030.txt.gz
Wind_Speed
4 4 18 27 17 10 10 12 15 4 10 14 20 22 20 21 28 22 29 31 39 42 45 45 43 36 35 29 20 26 22 19 20 28 31 34 36 30 27 23 24 20 19 18
4 18 14 10 6 12 14 15 19 6 8 10 14 25 25 24 25 29 34 36 34 43 45 47 40 30 28 24 21 26 25 18 26 29 32 37 35 27 24 22 21 15 13 15
10 6 9 16 13 17 16 18 14 10 11 20 7 19 18 18 18 23 28 36 36 39 38 32 29 29 29 28 24 25 25 20 28 29 31 31 33 26 22 19 17 16 15 15
11 12 14 14 19 17 18 12 11 16 13 15 4 20 24 19 25 18 20 29 36 38 41 39 30 30 30 26 21 22 24 24 25 25 26 27 31 27 24 18 18 16 16 17
12 9 4 13 16 15 19 14 11 13 11 14 14 6 30 10 18 17 18 32 39 38 32 31 31 35 25 19 20 23 21 20 21 21 21 22 22 20 18 15 16 19 19 20
13 16 15 13 14 12 8 10 16 17 4 8 12 13 22 15 18 11 12 22 28 37 34 26 27 25 21 21 22 20 18 20 19 19 19 20 19 18 17 18 17 16 15 15
3 9 11 12 12 11 7 1 4 4 6 16 13 9 21 11 7 11 15 24 37 34 28 22 18 23 27 27 23 20 22 23 21 22 22 20 21 18 14 17 16 14 13 12
6 4 9 2 2 6 7 9 5 7 5 8 14 10 9 16 25 36 30 34 30 31 26 22 25 29 27 25 23 23 24 27 26 24 22 21 19 13 17 15 11 10 10 10
0 5 2 7 8 2 5 10 7 5 14 2 7 9 8 19 24 22 19 15 13 17 23 28 29 28 27 23 23 25 26 27 26 25 22 20 16 13 14 12 9 8 8 6
6 5 5 6 5 3 6 4 3 4 8 6 6 6 11 8 10 10 10 10 18 23 28 29 28 26 23 21 23 27 27 27 25 22 20 17 13 11 9 7 7 6 6 7
3 1 5 5 4 8 3 2 3 4 4 10 3 6 5 13 12 17 8 22 31 32 33 32 28 25 23 24 28 28 27 26 22 18 15 12 12 7 6 3 5 8 8 6
1 2 4 10 15 13 4 6 5 2 7 4 4 16 12 16 9 19 12 25 28 34 34 31 29 27 27 28 27 26 25 23 19 17 15 13 10 6 5 5 5 7 9 8
4 2 4 9 2 7 6 3 1 4 6 16 6 9 3 8 7 4 20 26 30 34 33 32 31 30 30 27 26 26 23 20 18 18 16 13 8 5 7 7 5 10 10 7
1 4 6 6 7 7 8 8 7 3 3 11 16 16 22 21 8 6 8 29 33 37 38 36 33 32 29 27 26 24 20 19 19 18 14 11 7 5 8 11 11 10 9 7
7 4 10 12 17 17 18 16 12 8 6 4 7 17 18 17 13 11 24 30 31 32 34 37 36 33 30 29 26 23 20 21 19 17 11 10 8 7 12 12 13 10 9 5
6 4 5 15 18 18 19 13 12 11 12 11 15 26 13 11 16 7 26 31 30 32 33 37 35 33 32 29 27 25 22 21 19 17 12 7 4 12 14 15 13 10 10 9
8 5 3 8 13 3 4 12 9 5 7 6 7 12 15 7 2 8 14 32 34 34 36 38 37 34 33 29 26 26 25 19 18 17 11 8 8 11 11 19 14 10 10 9
9 5 4 6 6 4 5 11 5 6 8 1 12 15 5 9 11 3 6 18 32 33 36 38 36 35 33 28 27 25 27 19 17 16 11 12 10 9 11 14 18 13 13 9
14 8 3 2 2 3 3 9 8 10 5 4 13 7 8 12 7 15 16 9 30 41 38 37 35 35 33 31 29 26 28 20 18 15 16 13 11 13 12 13 14 13 14 13
9 9 3 3 4 2 1 9 21 11 5 8 14 11 3 24 12 6 8 7 17 34 37 39 38 37 34 34 31 28 29 22 20 18 17 16 14 14 10 9 11 12 13 12
2 3 7 7 4 3 3 14 21 5 3 21 24 15 9 6 4 6 6 6 4 33 37 38 39 38 36 35 33 29 27 22 23 17 18 16 13 11 5 9 9 10 11 13
2 3 1 3 1 4 18 17 7 7 11 17 23 18 19 20 21 6 8 6 11 29 35 37 40 39 37 36 33 29 25 23 22 20 19 18 15 12 8 7 10 10 11 13
2 4 2 2 1 4 16 15 11 18 14 19 24 24 25 24 22 22 12 12 16 21 35 40 39 39 37 36 32 28 24 26 23 22 20 23 18 13 9 6 12 9 9 13
3 4 4 5 5 1 14 25 25 18 21 29 19 15 33 22 21 21 23 28 22 19 24 33 36 37 38 36 32 22 27 27 22 23 24 25 19 15 7 8 11 10 11 13
3 6 6 4 5 9 18 23 24 29 27 32 27 29 31 29 25 25 30 32 29 22 18 14 32 36 36 35 32 24 28 29 23 24 25 26 20 16 11 11 13 12 8 8
6 2 0 2 8 5 10 18 15 21 26 36 33 23 26 24 26 28 34 28 28 26 22 11 27 36 33 33 33 27 29 31 25 28 25 26 21 19 12 14 15 11 8 7

GFSCGP_850_spd_033.txt.gz
Wind_Speed
9 4 15 18 15 12 6 6 2 4 7 12 17 27 24 21 27 29 36 40 44 44 48 46 51 46 44 44 41 31 26 30 33 29 31 35 34 31 29 24 21 19 18 19
3 17 7 1 3 9 12 10 8 6 11 5 10 17 17 14 16 25 27 29 34 35 47 37 35 37 39 29 28 27 30 30 34 30 30 33 32 29 23 21 20 20 20 15
8 6 5 11 6 10 7 8 9 8 9 18 12 18 15 12 15 26 29 36 34 36 38 42 39 34 37 34 27 29 27 24 29 30 32 30 22 19 20 21 21 23 17 10
6 7 10 7 6 15 15 4 9 4 5 9 0 16 20 18 23 20 19 33 34 41 44 41 37 37 37 34 31 28 25 23 28 28 25 26 25 25 24 19 14 13 10 10
8 6 3 10 10 8 7 12 11 10 8 4 4 4 24 5 17 20 20 30 41 46 47 47 46 39 30 24 26 26 24 23 23 20 19 20 21 22 18 17 14 12 11 13
17 14 9 7 8 8 6 4 8 9 2 5 11 9 24 9 16 12 10 22 28 29 26 25 27 28 27 21 28 25 23 19 17 15 14 15 19 21 20 17 15 14 14 16
5 15 7 8 6 5 5 3 1 2 3 12 12 11 25 7 4 4 8 18 27 27 29 27 26 24 23 19 25 23 20 19 16 15 17 17 19 19 18 17 15 15 15 16
1 3 9 6 11 7 7 9 4 6 5 5 11 13 11 10 15 25 25 27 27 29 28 31 30 25 19 24 23 21 19 19 19 19 20 19 18 17 14 13 13 12 12 12
4 3 2 2 1 5 2 4 9 4 3 2 7 9 13 21 18 9 12 16 24 28 28 19 15 17 24 25 22 20 20 22 22 21 21 19 17 14 13 14 12 11 11 8
4 0 4 5 3 6 5 3 3 1 5 5 5 8 12 6 23 3 9 10 17 17 14 14 18 24 24 23 23 21 21 25 24 23 20 18 15 13 12 11 10 9 7 7
3 1 3 2 4 3 2 2 4 3 5 4 3 6 7 12 8 9 14 22 19 20 19 22 25 26 25 25 25 24 26 27 25 22 18 16 13 10 9 7 8 8 9 8
3 2 4 8 7 8 2 4 3 3 6 8 2 7 8 6 6 9 14 28 14 23 25 27 28 28 27 27 28 27 27 26 23 19 16 13 11 9 8 7 7 9 10 9
2 1 3 7 3 4 1 5 5 3 1 10 5 7 8 8 11 13 7 2 16 28 28 30 29 28 28 31 30 29 26 23 20 17 16 14 10 6 7 7 7 9 9 8
5 3 4 4 7 6 9 11 5 4 3 6 20 13 30 12 13 16 14 8 12 28 32 32 29 29 32 30 30 28 25 22 20 18 16 11 8 6 6 9 6 14 11 5
6 5 5 9 12 14 15 16 17 12 8 7 7 7 21 9 14 13 20 15 19 19 32 32 31 32 31 29 29 27 24 23 22 20 15 12 9 6 9 13 13 12 9 6
3 4 3 9 10 19 18 19 18 17 17 13 13 19 14 7 18 16 18 22 23 21 27 32 33 33 32 31 29 26 24 24 21 18 16 9 7 7 12 14 11 10 10 6
6 4 1 6 10 11 12 20 22 15 12 12 10 8 7 13 8 6 7 22 28 30 30 36 35 33 32 31 28 26 24 23 20 17 13 9 6 11 13 16 12 10 10 8
4 4 4 5 5 6 4 9 8 15 12 13 7 11 14 12 8 3 6 11 20 25 26 36 34 32 30 28 26 25 24 21 18 16 14 11 9 10 12 18 13 12 10 8
15 7 3 3 3 8 8 7 5 4 2 6 6 8 8 4 6 3 2 6 5 23 28 33 32 31 30 27 26 26 25 21 19 18 14 11 10 11 14 16 17 13 12 9
10 14 7 3 3 4 3 7 13 10 5 6 11 10 10 8 3 3 7 4 2 11 27 32 30 32 31 29 29 27 26 22 20 19 15 12 11 12 12 13 14 13 11 10
1 2 9 7 4 5 4 12 14 6 2 16 17 18 16 4 5 1 5 9 4 11 24 32 33 33 31 31 31 28 27 25 19 17 16 14 13 11 11 11 10 10 11 10
3 3 2 3 5 3 12 14 3 5 10 10 20 21 16 0 10 8 10 2 16 16 31 34 34 34 32 33 31 28 28 24 21 19 17 15 13 13 11 10 10 10 10 11
3 3 2 2 2 3 16 19 13 9 8 8 17 22 8 14 22 21 14 7 8 26 35 35 36 34 34 35 32 27 25 25 24 20 20 17 15 12 10 9 9 9 9 10
3 4 3 4 3 5 12 16 24 29 27 28 24 11 4 31 24 26 22 5 3 21 35 37 37 34 36 36 31 24 25 24 23 21 21 18 17 14 10 8 7 4 6 9
2 5 6 4 5 12 14 22 23 28 31 35 14 9 30 36 31 27 19 18 16 12 23 33 34 34 35 35 32 26 25 27 24 19 21 21 19 14 10 9 10 6 4 4
3 4 3 3 14 7 14 17 14 17 26 30 18 19 33 36 35 27 23 21 20 10 16 21 29 31 32 32 32 28 27 29 25 21 21 22 22 17 11 8 12 10 7 5

GFSCGP_850_spd_036.txt.gz
Wind_Speed
5 4 13 11 10 9 5 3 1 1 2 2 16 21 18 16 22 21 30 33 36 39 47 49 46 38 32 34 31 32 30 28 30 27 29 31 30 33 36 33 25 20 18 20
4 9 7 4 6 9 10 2 4 5 9 4 6 12 13 10 13 23 27 30 33 39 42 43 40 39 38 32 32 32 32 27 25 27 28 30 30 33 32 22 18 16 19 19
7 7 3 5 5 5 4 5 3 6 9 10 9 16 15 12 16 27 30 36 38 38 40 39 35 32 33 35 34 35 34 27 24 26 28 30 29 25 22 20 18 19 19 17
6 7 7 7 5 11 11 4 2 3 3 7 3 10 16 15 20 14 18 32 36 37 41 43 41 40 40 38 37 38 32 25 23 26 27 27 26 21 20 17 17 19 18 13
10 6 3 4 6 7 6 11 8 4 4 4 6 4 14 4 13 9 14 29 37 48 45 46 43 43 40 37 34 33 23 23 22 22 20 19 16 14 12 15 20 19 17 17
12 15 4 7 8 5 4 5 4 3 3 6 7 8 22 10 18 14 8 24 33 29 27 25 23 22 22 24 25 25 19 20 19 15 13 11 11 14 17 19 19 16 15 14
9 10 13 6 4 2 4 5 1 1 3 9 14 9 21 3 7 6 8 17 18 18 23 26 26 23 18 17 18 18 18 17 15 13 13 12 12 13 15 16 15 14 14 11
5 3 7 8 10 7 6 8 4 6 5 4 7 12 8 13 15 19 18 23 21 22 24 24 20 16 18 17 14 15 17 17 15 16 17 16 15 15 14 12 12 10 10 9
4 1 5 6 2 10 4 5 9 2 3 1 5 7 9 12 19 8 8 16 24 26 23 20 18 13 10 13 17 18 18 17 19 20 20 19 17 15 15 14 12 11 10 8
3 5 5 4 3 11 5 4 4 1 4 5 5 6 7 7 9 5 9 11 28 34 22 9 6 10 16 19 20 19 18 20 21 21 20 19 18 15 13 14 12 10 8 7
2 0 4 2 4 5 1 1 2 3 4 3 3 5 6 4 5 7 9 19 28 30 13 10 14 20 22 21 21 21 21 23 23 21 20 19 16 14 12 10 9 8 8 8
2 1 3 6 6 4 2 3 2 4 6 7 3 6 5 5 4 6 12 26 24 11 10 16 23 24 24 23 24 24 24 24 22 20 17 14 13 10 9 8 8 10 11 10
1 1 3 5 3 4 2 3 4 2 1 5 4 7 5 10 15 18 17 22 10 1 10 21 26 26 26 26 26 27 26 24 22 18 16 14 13 10 10 9 9 12 11 11
4 4 5 4 2 2 4 8 9 5 4 7 15 12 21 22 13 17 28 24 6 6 11 19 27 27 27 27 29 28 26 23 20 17 17 16 12 9 9 9 10 13 11 9
6 6 6 9 11 10 11 13 14 14 12 9 3 3 13 15 16 16 24 23 8 12 18 21 25 27 29 30 30 28 25 22 19 20 18 14 11 8 9 9 12 16 11 7
2 3 2 10 11 13 16 15 17 18 18 17 15 14 16 21 20 14 22 23 15 20 23 24 24 27 32 31 30 27 24 21 20 20 16 13 10 7 11 14 15 12 9 7
4 2 1 5 5 7 9 18 19 19 15 11 15 7 15 10 11 13 22 21 16 23 27 27 26 30 32 32 31 28 25 25 22 17 15 13 9 8 14 15 13 11 9 8
7 7 3 3 1 5 4 4 10 19 16 14 9 10 5 10 24 30 20 16 15 22 27 28 28 29 29 30 28 26 25 24 20 16 14 11 7 11 14 17 14 12 10 9
14 9 3 3 4 9 11 2 5 5 2 9 6 11 9 16 21 11 10 4 16 22 27 27 26 28 28 28 27 26 26 22 17 14 13 12 10 11 14 19 14 13 10 10
13 13 7 4 4 5 2 2 12 7 3 5 3 8 10 11 4 5 7 7 10 19 22 25 25 27 28 28 26 26 24 21 17 15 12 10 8 10 12 16 15 12 11 8
1 3 12 9 5 6 7 12 12 5 0 10 9 11 14 5 8 3 4 12 7 14 19 23 25 28 27 27 28 26 23 20 17 14 12 12 11 10 10 12 12 11 10 10
3 4 2 3 4 4 11 12 5 6 17 15 14 13 16 21 17 12 8 15 3 13 21 22 27 29 28 27 28 26 23 19 16 14 15 12 12 11 10 10 11 10 9 10
2 2 3 2 2 4 11 16 27 27 20 12 14 21 15 15 10 13 11 17 5 9 23 24 28 29 29 29 27 26 21 21 18 16 16 14 12 11 9 9 9 8 8 10
3 0 3 5 2 10 7 19 18 17 14 19 9 8 4 4 8 14 14 15 4 11 21 25 25 29 30 29 28 22 21 22 20 18 18 16 13 10 9 6 6 5 6 8
3 5 6 4 6 17 10 23 21 26 24 21 11 7 4 6 12 12 15 13 11 9 12 23 22 27 29 29 27 26 23 23 21 19 18 17 14 10 8 7 6 4 4 4
2 4 3 3 16 10 12 17 26 29 27 26 18 15 14 16 19 16 15 9 7 5 1 13 21 23 28 30 26 27 23 23 23 20 18 19 16 13 9 7 9 7 7 7